| time (UTC) | temp F | wind direction | speed MPH | gust MPH | rain 1hr in | rain 24hr in | rain mn in | humidity % | barometer mb |
| 20260504173108 | 71 | 155 | 1.0 | 6.0 | 0.00 | 0.00 | 0.00 | 46 | 1012.6 |
| 20260504171609 | 71 | 213 | 1.0 | 4.0 | 0.00 | 0.00 | 0.00 | 45 | 1012.5 |
| 20260504170108 | 72 | 96 | 3.0 | 6.0 | 0.00 | 0.00 | 0.00 | 44 | 1012.4 |
| 20260504150112 | 78 | 166 | 4.0 | 11.0 | 0.00 | 0.00 | 0.00 | 40 | 1012.7 |
| 20260504140112 | 77 | 141 | 3.0 | 10.0 | 0.00 | 0.00 | 0.00 | 41 | 1013.4 |
| 20260504130111 | 76 | 154 | 5.0 | 14.0 | 0.00 | 0.00 | 0.00 | 45 | 1014.1 |
| 20260504120111 | 75 | 199 | 8.0 | 12.0 | 0.00 | 0.00 | 0.00 | 47 | 1014.5 |
| 20260504110110 | 73 | 161 | 3.0 | 6.0 | 0.00 | 0.00 | 0.00 | 51 | 1014.9 |
| 20260504100110 | 70 | 154 | 5.0 | 12.0 | 0.00 | 0.00 | 0.00 | 53 | 1015.7 |
| 20260504090110 | 67 | 143 | 3.0 | 7.0 | 0.00 | 0.00 | 0.00 | 56 | 1015.8 |
| 20260504081609 | 67 | 154 | 5.0 | 7.0 | 0.00 | 0.00 | 0.00 | 56 | 1015.7 |
| 20260504080109 | 65 | 195 | 1.0 | 7.0 | 0.00 | 0.00 | 0.00 | 57 | 1015.6 |
| 20260504070109 | 62 | 147 | 4.0 | 9.0 | 0.00 | 0.00 | 0.00 | 58 | 1015.4 |
| 20260504060109 | 59 | 128 | 2.0 | 8.0 | 0.00 | 0.00 | 0.00 | 61 | 1015.4 |
| 20260504050113 | 55 | 71 | 3.0 | 5.0 | 0.00 | 0.00 | 0.00 | 66 | 1015.3 |
| 20260504044614 | 53 | 165 | 2.0 | 4.0 | 0.00 | 0.00 | 0.00 | 70 | 1015.3 |
| 20260504043113 | 53 | 138 | 0.0 | 2.0 | 0.00 | 0.00 | 0.00 | 67 | 1015.3 |
| 20260504040113 | 52 | 78 | 4.0 | 8.0 | 0.00 | 0.00 | 0.00 | 66 | 1015.1 |
| 20260504034613 | 52 | 84 | 2.0 | 4.0 | 0.00 | 0.00 | 0.00 | 67 | 1015.4 |
| 20260504033113 | 51 | 81 | 1.0 | 3.0 | 0.00 | 0.00 | 0.00 | 67 | 1015.5 |
| 20260504031613 | 52 | 40 | 0.0 | 4.0 | 0.00 | 0.00 | 0.00 | 65 | 1015.4 |
| 20260504030112 | 53 | 110 | 0.0 | 1.0 | 0.00 | 0.00 | 0.00 | 64 | 1015.6 |
| 20260504024614 | 53 | 182 | 1.0 | 3.0 | 0.00 | 0.00 | 0.00 | 64 | 1015.5 |
| 20260504021612 | 53 | 95 | 0.0 | 2.0 | 0.00 | 0.00 | 0.00 | 63 | 1015.6 |
| 20260504020112 | 53 | 128 | 1.0 | 2.0 | 0.00 | 0.00 | 0.00 | 61 | 1015.5 |
| 20260504014612 | 53 | 143 | 0.0 | 2.0 | 0.00 | 0.00 | 0.00 | 61 | 1015.7 |
| 20260504013112 | 54 | 102 | 0.0 | 6.0 | 0.00 | 0.00 | 0.00 | 60 | 1015.5 |
| 20260504011612 | 53 | 201 | 0.0 | 4.0 | 0.00 | 0.00 | 0.00 | 59 | 1015.4 |
| 20260504010112 | 54 | 76 | 1.0 | 3.0 | 0.00 | 0.00 | 0.00 | 59 | 1015.6 |
| 20260504003111 | 54 | 101 | 1.0 | 4.0 | 0.00 | 0.00 | 0.00 | 57 | 1015.7 |
| 20260504001611 | 53 | 92 | 1.0 | 2.0 | 0.00 | 0.00 | 0.00 | 58 | 1015.7 |
| 20260504000111 | 53 | 83 | 1.0 | 2.0 | 0.00 | 0.00 | 0.00 | 58 | 1015.8 |
| 20260503234611 | 53 | 41 | 0.0 | 2.0 | 0.00 | 0.00 | 0.00 | 58 | 1015.7 |
| 20260503233111 | 54 | 331 | 2.0 | 3.0 | 0.00 | 0.00 | 0.00 | 56 | 1015.9 |
| 20260503231611 | 55 | 18 | 1.0 | 2.0 | 0.00 | 0.00 | 0.00 | 54 | 1016.0 |
| 20260503230111 | 56 | 109 | 0.0 | 3.0 | 0.00 | 0.00 | 0.00 | 53 | 1016.1 |
| 20260503224611 | 57 | 77 | 2.0 | 4.0 | 0.00 | 0.00 | 0.00 | 51 | 1016.1 |
| 20260503223110 | 57 | 59 | 2.0 | 6.0 | 0.00 | 0.00 | 0.00 | 50 | 1016.2 |
| 20260503213110 | 59 | 140 | 3.0 | 8.0 | 0.00 | 0.00 | 0.00 | 48 | 1016.3 |
| 20260503211610 | 60 | 222 | 2.0 | 6.0 | 0.00 | 0.00 | 0.00 | 48 | 1016.2 |
| 20260503210110 | 60 | 161 | 2.0 | 6.0 | 0.00 | 0.00 | 0.00 | 47 | 1016.0 |
| 20260503204610 | 60 | 322 | 1.0 | 5.0 | 0.00 | 0.00 | 0.00 | 48 | 1016.1 |
| 20260503203109 | 61 | 258 | 2.0 | 6.0 | 0.00 | 0.00 | 0.00 | 48 | 1016.3 |
| 20260503200109 | 61 | 104 | 1.0 | 3.0 | 0.00 | 0.00 | 0.00 | 50 | 1016.6 |
| 20260503194609 | 62 | 201 | 1.0 | 7.0 | 0.00 | 0.00 | 0.00 | 50 | 1016.8 |
| 20260503193109 | 62 | 157 | 2.0 | 7.0 | 0.00 | 0.00 | 0.00 | 51 | 1016.8 |
| 20260503191609 | 62 | 167 | 1.0 | 3.0 | 0.00 | 0.00 | 0.00 | 52 | 1016.6 |
| 20260503190109 | 63 | 159 | 0.0 | 4.0 | 0.00 | 0.00 | 0.00 | 52 | 1016.5 |
| 20260503184609 | 63 | 147 | 1.0 | 4.0 | 0.00 | 0.00 | 0.00 | 51 | 1016.5 |
| 20260503183109 | 64 | 163 | 2.0 | 4.0 | 0.00 | 0.00 | 0.00 | 50 | 1016.5 |
| 20260503181609 | 65 | 161 | 2.0 | 5.0 | 0.00 | 0.00 | 0.00 | 48 | 1016.3 |
| 20260503180108 | 66 | 163 | 3.0 | 9.0 | 0.00 | 0.00 | 0.00 | 47 | 1016.1 |
| 20260503174608 | 67 | 161 | 2.0 | 10.0 | 0.00 | 0.00 | 0.00 | 45 | 1016.2 |